Location: Izdebno
(52.6670°N, 16.2170°E)
Time: 03:31:41
(UTC+02:00)

Transit 2A - Pass Details

Date: 23 February 2024
Orbit: 596 x 956 km, 66.7° (Epoch: 21 April)

Event Time Altitude Azimuth Distance (km) Brightness Sun altitude
Rises 21:58:33 0° 253° (WSW) 2,841 - -39.7°
Reaches altitude 10° 22:01:01 10° 265° (W) 1,937 - -40.0°
Maximum altitude 22:04:48 29° 327° (NNW) 1,122 - -40.4°
Drops below altitude 10° 22:08:42 10° 28° (NNE) 1,998 - -40.7°
Sets 22:11:17 0° 40° (NE) 2,947 - -41.0°
